User: anonymous   Login
Location: Unspecified
(0.0000°N, 0.0000°E)
Time: 08:50:30
(UTC+00:00)
Language:

ACS3 Solar Sail - Orbit

View from above orbital plane
View from above orbital plane
View from above satellite
View from above satellite

Ground track
Ground track

The orbit is defined by the following mean orbital elements,

1 59588U          26143.21817437 +.00000000 +00000-0 +23650-2 0 00005
2 59588  97.1747  67.5928 0022166  22.8878 337.3271 13.92695105    08
Epoch (UTC): 23 May 2026 05:14:10
Eccentricity: 0.0022166
inclination: 97.1747°
perigee height: 903 km
apogee height: 935 km
right ascension of ascending node: 67.5928°
argument of perigee: 22.8878°
revolutions per day: 13.92695105
mean anomaly at epoch: 337.3271°

The dashed part of the orbit path shows where the satellite is in the earth's shadow,  

DLR